www.pogodaiklimat.ru

Погода и климат >> Архив погоды >> Китай >> Хэйлунцзян >> Айгунь


ПОГОДА в Айгуне

  • Прогноз погоды в Айгуне
  • Монитор погоды в Айгуне

АРХИВ ПОГОДЫ в Айгуне

Время (UTC), дата Ветер
(напр.,м/с)
 
Видим.   Явления Облачность Т
(С)
Тd
(С)
f
(%)
Тe
(С)
Тes
(С)
Комфортность P
(гПа)
Po
(гПа)
Тmin
(С)
Tmax
(С)
R
(мм)
R24
(мм)
S
(см)
06 15.08 Ю 1 30 км 9/9 600 м
[]
+22.6 +18.2 76 +28 +29 душно 1003.0 983.7 +18.4
09 15.08 В 4 30 км 8/8 600 м
[]
+23.1 +18.4 75 +29 +29 очень
душно
1002.6 983.6
12 15.08 В 1 30 км 8/8 600 м
[]
+21.0 +18.2 84 +26 +26 душно 1003.4 984.0
15 15.08 С 2 22 км н/о +18.6 +17.8 95 +20 +20 1002.9 983.6
18 15.08 СЗ 3 30 км н/о +17.6 +17.1 97 +18 +18 1002.1 982.8 +24.3
21 15.08 С 2 25 км н/о +17.4 +16.9 97 +18 +18 1001.7 982.3
00 16.08 СВ 3 21 км 9/9 600 м
[]
+19.1 +17.4 90 +21 +22 комфорт 1001.8 982.5
03 16.08 С 3 16 км слаб. дождь 10/10 600 м
[]
+18.9 +16.7 87 +20 +20 1001.0 981.7
06 16.08 С 3 н/о слаб. дождь 10/10 600 м
[]
+18.5 +17.3 93 +19 +19 1000.0 980.6 +17.1 5
09 16.08 СВ 2 4100 м слаб. дождь 10/10 600 м
[]
+17.7 +17.1 96 +18 +18 999.2 979.9
12 16.08 С 2 10 км слаб. дождь 10/10 600 м
[]
+16.2 +15.4 95 +16 +16 998.9 979.5 12
15 16.08 СВ 2 3200 м слаб. дождь н/о +15.8 +15.3 97 +16 +16 997.5 978.1
18 16.08 СВ 2 9000 м слаб. дождь ?/? +15.4 +14.8 96 +15 +15 996.5 977.1 +19.7 6
21 16.08 СВ 3 1800 м слаб. дождь н/о +15.0 +14.5 97 +14 +14 996.4 977.0
00 17.08 С 3 4200 м слаб. дождь 10/10 600 м
[]
+15.7 +15.1 96 +15 +15 996.3 976.8 0.9
03 17.08 С 2 8000 м слаб. дождь 10/10 600 м
[]
+17.1 +15.6 91 +17 +17 996.4 977.1
06 17.08 СВ 2 2900 м слаб. дождь 10/10 600 м
[]
+16.8 +16.0 95 +17 +17 996.4 976.9 +14.9 3
09 17.08 В 2 2700 м слаб. дождь 10/10 600 м
[]
+16.3 +15.3 94 +16 +16 997.0 977.6
12 17.08 ЮВ 3 4400 м слаб. дождь 10/10 600 м
[]
+15.7 +14.9 95 +15 +15 998.3 978.7 7
15 17.08 В 2 2200 м слаб. дождь н/о +15.2 +14.7 97 +15 +15 998.6 979.1
18 17.08 В 3 2200 м слаб. дождь ?/? +14.1 +13.6 97 +13 +13 999.0 979.4 +18.0 7
21 17.08 СВ 3 1800 м слаб. дождь н/о +13.7 +13.4 98 +12 +12 1000.0 980.4
00 18.08 СВ 3 13 км слаб. дождь 10/10 600 м
[]
+14.1 +13.1 94 +13 +13 1001.2 981.5 3
03 18.08 СВ 4 23 км слаб. дождь 9/9 1000 м
[]
+15.2 +12.9 86 +14 +15 1002.5 983.0
06 18.08 С 3 18 км слаб. дождь 10/10 600 м
[]
+15.4 +13.8 90 +15 +15 1003.6 983.9 +13.4 0.5
09 18.08 С 3 30 км слаб. дождь 10/10 1000 м
[]
+14.6 +13.3 92 +14 +14 1005.1 985.5
12 18.08 С 3 30 км {дождь} 10/10 1000 м
[]
+13.6 +12.2 91 +12 +12 1006.8 987.0 0.4
15 18.08 С 3 30 км н/о +12.4 +11.3 93 +11 +11 1007.7 987.9
18 18.08 СЗ 3 30 км н/о +12.6 +11.2 91 +11 +11 1008.8 988.9 +16.1
21 18.08 З 2 30 км н/о +12.0 +10.7 92 +11 +11 1009.9 990.0
00 19.08 С 3 30 км 8/8 600 м
[]
+15.4 +11.8 79 +15 +16 1010.8 990.9
03 19.08 С 2 30 км 9/9 600 м
[]
+18.6 +11.9 65 +20 +21 1010.8 991.3
06 19.08 З 1 30 км 9/9 600 м
[]
+18.8 +11.1 61 +21 +22 комфорт 1011.3 991.5 +12.0
09 19.08 Ю 1 30 км 9/9 1000 м
[]
+18.9 +11.9 64 +21 +21 комфорт 1011.5 992.0
12 19.08 С 2 30 км {дождь} 9/9 1000 м
[]
+16.6 +12.9 79 +17 +17 1012.8 993.0 0.0
15 19.08 С 1 30 км н/о +13.8 +12.7 93 +14 +14 1013.2 993.4
18 19.08 СЗ 1 30 км н/о +12.3 +11.8 97 +12 +12 1013.0 993.1 +19.5
21 19.08 СЗ 1 30 км н/о +12.4 +11.9 97 +12 +12 1013.0 993.1
00 20.08 З 1 30 км 9/9 600 м
[]
+15.2 +13.4 89 +16 +16 1013.0 993.2
03 20.08 В 1 30 км {дождь} 9/9 600 м
[]
+15.8 +13.3 85 +16 +18 1012.5 992.8
06 20.08 В 1 30 км {дождь} 9/9 600 м
[]
+18.2 +14.3 78 +20 +21 1011.2 991.4 +11.9 6
09 20.08 В 2 30 км 9/9 1000 м
[]
+18.6 +14.7 78 +20 +20 1010.5 991.0
12 20.08 В 1 30 км слаб. дождь 9/9 1000 м
[]
+18.0 +15.1 83 +19 +19 1009.7 990.0 0.0
15 20.08 ЮВ 2 25 км слаб. дождь н/о +16.7 +15.2 91 +17 +17 1008.7 989.1
18 20.08 В 2 29 км слаб. дождь ?/? +16.3 +14.5 89 +16 +16 1006.7 987.1 +19.5 1
21 20.08 В 2 29 км н/о +15.9 +13.7 87 +16 +16 1005.4 985.9
00 21.08 В 3 30 км слаб. дождь 9/9 1000 м
[]
+16.1 +14.5 90 +16 +16 1004.8 985.2 0.2
03 21.08 ЮВ 4 16 км слаб. дождь 10/10 600 м
[]
+17.0 +15.5 91 +17 +17 1004.3 984.9
06 21.08 В 5 10 км слаб. дождь 10/10 600 м
[]
+18.0 +16.9 93 +18 +18 1003.0 983.5 +15.5 6
09 21.08 В 4 30 км слаб. дождь 10/10 600 м
[]
+18.9 +16.9 88 +20 +20 1003.2 983.9
12 21.08 В 1 30 км {дождь} 9/9 600 м
[]
+17.7 +16.4 92 +19 +19 1004.6 985.0 0.4
15 21.08 В 3 н/о слаб. дождь н/о +16.6 +15.6 94 +16 +16 1004.4 984.9
18 21.08 В 2 30 км ?/? +17.0 +15.7 92 +17 +17 1004.1 984.6 +19.1 3
21 21.08 СВ 3 2900 м дождь н/о +16.0 +15.5 97 +15 +15 1004.5 985.0
00 22.08 СВ 2 30 км 9/9 600 м
[]
+16.6 +15.5 93 +17 +17 1005.5 985.9 3
03 22.08 СВ 2 30 км 9/9 600 м
[]
+18.5 +15.9 85 +20 +21 1006.1 986.7

 

Местоположение метеостанции Айгунь (Хэйлунцзян, Китай): широта 50.25 долгота 127.45 высота над уровнем моря 166 м.

В архиве по умолчанию представлена погода в Айгуне за последнюю неделю. Архивные данные за месяц целиком и за предыдущие месяцы, начиная с января 2011 года, Вы можете получить, выбрав интересующий диапазон дат из раскрывающегося списка и нажав кнопку "Ввод!".


*Определитесь, кто Вы:
робот инопланетянин человек

Внимание! Время в таблицах - всемирное. Для получения местного времени необходимо прибавить поправку, которая равна 8 ч.

Смотрите также архив погоды в соседних городах и на ближайших метеорологических станциях:

Погода в Благовещенске (Амурская область, Россия) (5 км)
Погода в Сергеевке (Амурская область, Россия) (60 км)
Погода в Константиновке (Амурская область, Россия) (77 км)
Погода в Суньу (Хэйлунцзян, Китай) (91 км)
Погода в Белогорске (Амурская область, Россия) (100 км)
Погода в Поярково (Амурская область, Россия) (108 км)
Погода в Екатеринославке (Амурская область, Россия) (111 км)
Погода в Завитае (Амурская область, Россия) (140 км)
Погода в Свободном (Амурская область, Россия) (141 км)
Погода в Братолюбовке (Амурская область, Россия) (144 км)

Пояснения к столбцам:

Ветер - указаны скорость ветра в м/с - средняя за 10 мин, порывы в срок и между сроками (в фигурных скобках) и направление, откуда дует ветер: С - северный, СВ - северо-восточный, В - восточный, ЮВ - юго-восточный, Ю - южный, ЮЗ - юго-западный, З - западный, СЗ - северо-западный.
Видимость - горизонтальная дальность видимости в метрах или километрах. При видимости от 1 до 10 км при отсутствии осадков обычно наблюдается дымка, при ухудшении видимости до 1 км и менее - туман. В сухую погоду видимость может ухудшаться дымом, пылью или мглою.
Явления - указаны атмосферные явления, наблюдавшиеся в срок или в последний час перед сроком; фигурными скобками обозначены явления, наблюдавшиеся между сроками (за 1-3 часа до срока); квадратными скобками обозначены град или гололедные отложения с указанием их диаметра в мм.
Облачность - указаны через наклонную черту общая и нижняя облачность в баллах и высота нижней границы облаков в метрах; квадратными скобками обозначены формы облаков: Ci - перистые, Cs - перисто-слоистые, Cc - перисто-кучевые, Ac - высококучевые, As - высокослоистые, Sc - слоисто-кучевые, Ns - слоисто-дождевые, Cu - кучевые, Cb - кучево-дождевые. Подробнее классификацию облаков см. в Атласе облаков (PDF).
T - Температура воздуха - температура, измеренная на высоте 2 м над землей.
Td - Температура точки росы - температура, при понижении до которой содержащийся в воздухе водяной пар достигнет насыщения.
f - Относительная влажность воздуха - влажноcть воздуха, измеренная на высоте 2 м над землей.
Te - Эффективная температура - температура, которую ощущает одетый по сезону человек в тени. Характеристика душности погоды. При расчете учитывается влияние влажности воздуха и скорости ветра на теплоощущения человека.
Tes - Эффективная температура на солнце - температура, которую ощущает человек, с поправкой на солнечный нагрев. Характеристика знойности погоды. Зависит от высоты солнца над горизонтом, облачности и скорости ветра. Ночью, в пасмурную погоду, а также при ветре 12 м/с и более поправка равна нулю.
P - Атмосферное давление - приведенное к уровню моря атмосферное давление.
Po - Атмосферное давление - измеренное на уровне метеостанции атмосферное давление.
Tmin - Минимальная температура - минимум температуры воздуха на высоте 2 м над землей.
Tmax - Максимальная температура - максимум температуры воздуха на высоте 2 м над землей.
R - Количество осадков - Количество выпавших осадков за период времени, мм. При наведении курсора мыши на число - период времени, за который выпало указанное количество осадков.
R24 - Количество осадков - Количество выпавших осадков за 24 часа, мм.
S - Снежный покров - Высота снежного покрова, см. При наведении курсора мыши на число - состояние снежного покрова и степень покрытия местности в баллах.